TimeCDT,TemperatureF,Dew PointF,Humidity,Sea Level PressureIn,VisibilityMPH,Wind Direction,Wind SpeedMPH,Gust SpeedMPH,PrecipitationIn,Events,Conditions,WindDirDegrees,DateUTC
12:45 AM,62.6,60.8,94,29.58,10.0,SE,20.7,27.6,0.00,Rain-Thunderstorm,Light Thunderstorms and Rain,140,2013-05-30 05:45:00
12:53 AM,64.0,60.1,87,29.52,8.0,SE,17.3,-,0.00,Rain-Thunderstorm,Light Thunderstorms and Rain,140,2013-05-30 05:53:00
1:18 AM,66.2,62.6,88,29.57,10.0,SSE,28.8,38.0,0.02,,Overcast,150,2013-05-30 06:18:00
1:53 AM,66.9,61.0,81,29.53,9.0,SSE,27.6,38.0,0.02,Rain,Light Rain,160,2013-05-30 06:53:00
2:25 AM,64.4,59.0,83,29.54,9.0,SSE,24.2,31.1,0.00,Thunderstorm,Thunderstorm,160,2013-05-30 07:25:00
2:53 AM,64.0,60.1,87,29.57,8.0,SSW,19.6,28.8,0.03,Rain-Thunderstorm,Light Thunderstorms and Rain,200,2013-05-30 07:53:00
3:43 AM,62.6,60.8,94,29.55,10.0,SSE,27.6,35.7,0.07,Rain,Light Rain,150,2013-05-30 08:43:00
3:53 AM,63.0,61.0,93,29.52,10.0,SSE,20.7,31.1,0.07,Rain,Light Rain,160,2013-05-30 08:53:00
4:53 AM,64.0,61.0,90,29.59,7.0,NW,8.1,-,0.02,Rain,Light Rain,320,2013-05-30 09:53:00
5:10 AM,62.6,59.0,88,29.64,6.0,North,16.1,21.9,0.00,Rain,Light Rain,350,2013-05-30 10:10:00
5:20 AM,60.8,59.0,94,29.63,4.0,North,15.0,19.6,0.03,Rain,Rain,350,2013-05-30 10:20:00
5:25 AM,60.8,59.0,94,29.62,1.5,North,23.0,35.7,0.06,Rain,Heavy Rain,350,2013-05-30 10:25:00
5:27 AM,60.8,59.0,94,29.62,1.5,North,21.9,35.7,0.11,Rain-Thunderstorm,Heavy Thunderstorms and Rain,350,2013-05-30 10:27:00
5:40 AM,60.8,59.0,94,29.63,3.0,North,17.3,35.7,0.28,Rain-Thunderstorm,Heavy Thunderstorms and Rain,360,2013-05-30 10:40:00
5:53 AM,60.1,59.0,96,29.61,5.0,North,15.0,24.2,0.36,Rain-Thunderstorm,Heavy Thunderstorms and Rain,360,2013-05-30 10:53:00
6:53 AM,59.0,59.0,100,29.63,3.0,North,11.5,-,0.68,Rain-Thunderstorm,Heavy Thunderstorms and Rain,350,2013-05-30 11:53:00
7:18 AM,59.0,59.0,100,29.68,3.0,North,9.2,-,0.23,Rain-Thunderstorm,Heavy Thunderstorms and Rain,360,2013-05-30 12:18:00
7:53 AM,60.1,59.0,96,29.65,3.0,NNE,9.2,-,0.38,Rain-Thunderstorm,Light Thunderstorms and Rain,20,2013-05-30 12:53:00
8:53 AM,60.1,57.9,93,29.65,5.0,ENE,12.7,-,0.21,Rain-Thunderstorm,Light Thunderstorms and Rain,60,2013-05-30 13:53:00
9:38 AM,60.8,57.2,88,29.63,7.0,East,12.7,24.2,0.02,Rain,Light Rain,80,2013-05-30 14:38:00
9:53 AM,62.1,57.9,86,29.63,10.0,NE,6.9,-,0.02,,Mostly Cloudy,40,2013-05-30 14:53:00
10:41 AM,62.6,57.2,82,29.67,10.0,East,11.5,-,N/A,Thunderstorm,Thunderstorm,100,2013-05-30 15:41:00
10:53 AM,62.1,59.0,90,29.73,3.0,WNW,18.4,29.9,0.04,Rain-Thunderstorm,Light Thunderstorms and Rain,300,2013-05-30 15:53:00
11:30 AM,64.4,62.6,94,29.68,10.0,East,12.7,-,0.07,,Mostly Cloudy,80,2013-05-30 16:30:00
11:53 AM,66.9,61.0,81,29.65,10.0,ESE,10.4,-,0.07,,Scattered Clouds,110,2013-05-30 16:53:00
12:53 PM,71.1,62.1,73,29.63,10.0,SSE,6.9,-,N/A,,Scattered Clouds,150,2013-05-30 17:53:00
1:53 PM,73.9,62.1,66,29.62,10.0,South,6.9,-,N/A,,Scattered Clouds,190,2013-05-30 18:53:00
2:53 PM,75.9,61.0,60,29.62,10.0,Variable,6.9,-,N/A,,Scattered Clouds,0,2013-05-30 19:53:00
3:53 PM,78.1,61.0,56,29.61,10.0,SSW,6.9,-,N/A,,Scattered Clouds,210,2013-05-30 20:53:00
4:53 PM,78.1,62.1,58,29.60,10.0,South,4.6,-,N/A,,Scattered Clouds,170,2013-05-30 21:53:00
5:53 PM,78.1,63.0,60,29.59,10.0,SE,6.9,-,N/A,,Scattered Clouds,130,2013-05-30 22:53:00
6:53 PM,78.1,66.0,66,29.60,10.0,SE,11.5,-,N/A,,Scattered Clouds,140,2013-05-30 23:53:00
7:53 PM,75.9,66.0,71,29.62,10.0,ENE,8.1,-,N/A,,Scattered Clouds,70,2013-05-31 00:53:00
8:53 PM,73.0,64.0,73,29.61,10.0,East,9.2,-,N/A,,Scattered Clouds,90,2013-05-31 01:53:00
9:53 PM,73.0,64.9,76,29.61,10.0,ESE,11.5,-,N/A,,Scattered Clouds,110,2013-05-31 02:53:00
10:53 PM,72.0,68.0,87,29.62,10.0,East,9.2,-,N/A,,Scattered Clouds,100,2013-05-31 03:53:00
11:53 PM,71.1,66.9,87,29.64,10.0,ESE,9.2,-,N/A,,Mostly Cloudy,110,2013-05-31 04:53:00